Probability
0 0 0 0 0 0 0 0 0 0 0 0 0 0 0 0 0 0 0 0 0 0 0 0 0 0 0 0 0 0 0 0 0 0 0 0 0 0
0 0 0 0 0 0 0 0 0 0 0 0 0 0 0 0 0 0 0 0 0 0 0 0 0 0 0 0 0 0 0 0 0 0 0 0 0 0
0 0 0 0 0 0 0 0 0 0 0 0 0 0 0 0 0 0 0 0 0 0 0 0 0 0 0 0 0 0 0 0 0 0 0 0 0 0
0 0 0 0 0 0 0 0 0 0 0 0 0 0 0 0 0 0 0 0 0 0 0 0 0 0 0 0 0 0 0 0 0 0 0 0 0 0
0 0 0 0 0 0 0 0 0 0 0 0 0 0 0 0 0 0 0 0 0 0 0 0 0 0 0 0 0 0 0 0 0 0 0 0 0 0
0 0 0 0 0 0 0 0 0 0 0 0 0 0 0 0 0 0 0 0 0 0 0 0 0 0 0 0 0 0 0 0 0 0 0 0 0 0
0 0 0 0 0 0 0 0 0 0 0 0 0 0 0 0 0 0 0 0 0 0 0 0 0 0 0 0 0 0 0 0 0 0 0 0 0 0
0 0 0 0 0 0 0 0 0 0 0 0 0 0 0 0 0 0 0 0 0 0 0 0 0 0 0 0 0 0 0 0 0 0 0 0 0 0
0 0 0 0 0 0 0 0 0 0 0 0 0 0 0 0 0 0 0 0 0 0 0 0 0 0 0 0 0 0 0 0 0 0 0 0 0 0
0 0 0 0 0 0 0 0 0 0 0 0 0 0 0 0 0 0 0 0 0 0 0 0 0 0 0 0 0 0 0 0 0 0 0 0 0 0
0 0 0 0 0 0 0 0 0 0 0 0 0 0 0 0 0 0 0 0 0 0 0 0 0 0 0 0 0 0 0 0 0 0 0 0 0 0
0 0 0 0 0 0 0 0 0 0 0 0 0 0 0 0 0 0 0 0 0 0 0 0 0 0 0 0 0 0 0 0 0 0 0 0 0 0
0 0 0 0 0 0 0 0 0 0 0 0 0 0 0 0 0 0 0 0 0 0 0 0 0 0 0 0 0 0 0 0 0 0 0 0 0 0
0 0 0 0 0 0 0 0 0 0 0 0 0 0 0 0 0 0 0 0 0 0 0 0 0 0 0 0 0 0 0 0 0 0 0 0 0 0
0 0 0 0 0 0 0 0 0 0 0 0 0 0 0 0 0 0 0 0 0 0 0 0 0 0 0 0 0 0 0 0 0 0 0 0 0 0
0 0 0 0 0 0 0 0 0 0 0 0 0 0 0 0 0 0 0 0 0 0 0 0 0 0 0 0 0 0 0 0 0 0 0 0 0 0
0 0 0 0 0 0 0 0 0 0 0 0 0 0 0 0 0 0 0 0 0 0 0 0 0 0 0 0 0 0 0 0 0 0 0 0 0 0
0 0 0 0 0 0 0 0 0 0 0 0 0 0 0 0 0 0 0 0 0 0 0 0 0 0 0 0 0 0 0 0 0 0 0 0 0 0
0 0 0 0 0 0 0 0 0 0 0 0 0 0 0 0 0 0 0 0 0 0 0 0 0 0 0 0 0 0 0 0 0 0 0 0 0 0
0 0 0 0 0 0 0 0 0 0 0 0 0 0 0 0 0 0 0 0 0 0 0 0 0 0 0 0 0 0 0 0 0 0 0 0 0 0
0 0 0 0 0 0 0 0 0 0 0 0 0 0 0 0 0 0 0 0 0 0 0 0 0 0 0 0 0 0 0 0 0 0 0 0 0 0
0 0 0 0 0 0 0 0 0 0 0 0 0 0 0 0 0 0 0 0 0 0 0 0 0 0 0 0 0 0 0 0 0 0 0 0 0 0
0 0 0 0 0 0 0 0 0 0 0 0 0 0 0 0 0 0 0 0 0 0 0 0 0 0 0 0 0 0 0 0 0 0 0 0 0 0
Wind_Speed
2 2 2 1 2 2 2 3 4 2 1 1 1 2 2 1 3 3 3 6 7 7 7 8 8 8 8 8 8 8 8 9 9 9 9 9 10 9
2 3 2 1 2 2 2 2 2 3 2 1 1 1 1 2 3 2 2 5 5 6 6 6 6 6 6 6 7 7 7 7 7 8 8 8 8 8
2 2 2 2 2 2 2 2 2 2 3 0 0 1 1 2 2 2 2 2 2 5 4 4 4 4 5 5 5 5 6 6 7 7 7 8 8 8
2 2 2 2 2 2 2 2 2 2 3 2 0 0 0 1 1 1 2 1 1 3 3 3 4 4 4 4 4 4 5 5 5 6 6 7 8 8
2 3 2 3 2 2 2 2 2 2 2 3 1 0 0 1 1 1 1 2 2 2 2 3 3 4 4 4 3 3 4 4 5 5 6 6 7 7
1 2 2 3 4 3 3 3 3 3 2 2 1 1 0 0 1 0 1 1 2 2 3 3 3 4 4 4 4 3 3 4 4 4 5 5 6 7
1 1 2 3 5 4 3 4 4 3 2 2 1 1 0 0 1 1 1 1 2 1 2 2 2 2 3 4 4 4 3 3 4 4 4 5 5 6
2 1 1 2 3 4 5 6 7 5 4 3 2 2 3 2 1 1 1 0 2 1 0 2 1 2 2 2 4 5 5 4 4 4 4 4 5 6
2 1 1 1 2 2 2 3 3 4 6 5 4 4 4 4 3 2 2 2 3 2 1 2 1 2 3 2 5 5 5 5 4 4 4 5 6 6
2 2 2 2 3 4 3 2 1 1 3 3 4 4 3 3 4 4 3 2 1 1 1 2 2 2 2 2 4 5 4 4 4 4 5 5 6 7
2 2 2 2 4 6 4 3 1 1 1 3 3 3 2 3 4 3 2 1 1 2 1 1 2 2 2 2 3 4 4 4 4 5 6 7 7 6
1 1 3 4 5 6 5 4 4 3 1 1 0 1 0 1 4 4 3 2 1 2 2 2 1 1 2 2 2 2 3 4 5 6 7 7 7 3
2 2 2 5 5 6 5 4 5 4 2 2 1 0 0 0 1 1 2 3 3 3 2 2 1 1 1 2 2 2 2 2 2 3 6 7 7 4
4 3 3 5 5 5 4 4 5 3 2 2 1 1 1 2 2 2 2 2 3 3 2 3 2 2 2 2 3 3 2 2 2 3 3 6 6 7
3 5 5 4 4 3 3 4 3 2 2 2 2 3 2 2 1 1 1 1 1 2 1 2 2 2 2 3 3 2 3 3 2 3 3 3 3 3
2 3 3 2 2 2 2 2 2 2 3 3 2 2 1 1 1 1 1 1 1 2 2 2 3 3 3 3 3 3 3 3 3 3 4 4 4 4
3 1 1 1 1 0 1 1 1 1 2 2 2 2 2 2 2 1 1 1 1 2 3 2 2 2 4 3 3 5 4 4 4 4 3 4 5 5
4 2 2 2 3 3 2 2 2 2 2 2 2 3 3 2 2 1 1 2 3 3 3 2 1 1 2 3 6 5 4 5 4 4 3 4 6 5
3 3 3 3 3 3 3 3 3 3 2 3 3 3 3 3 2 2 2 2 3 3 3 2 2 2 3 5 5 5 4 4 3 3 4 4 6 6
3 4 4 3 3 3 3 3 3 2 2 2 3 3 3 3 3 3 3 4 4 3 3 3 3 4 5 6 4 4 6 5 4 5 4 4 5 7
4 3 3 3 3 3 3 3 3 3 3 3 3 3 3 3 3 4 4 5 4 4 4 5 5 5 3 2 3 4 4 6 6 4 4 4 5 4
3 3 3 3 3 3 2 2 2 2 2 2 2 3 3 3 4 4 4 4 4 4 5 4 3 2 2 4 6 6 5 4 5 7 7 5 4 4
3 3 3 3 3 2 2 2 2 2 2 2 2 2 2 3 3 3 3 4 3 4 4 3 2 2 3 4 5 6 7 6 4 4 5 8 10 12
Wind_Direction
105 106 104 99 103 119 136 144 144 149 254 303 333 345 353 28 33 36 33 52 53 53 57 53 51 48 44 40 36 34 36 35 35 33 31 30 29 28
106 102 94 93 92 97 116 115 129 145 157 228 253 307 357 47 56 45 32 43 46 51 50 49 48 45 43 38 36 34 34 35 33 28 24 21 19 18
98 111 112 113 111 106 107 106 108 121 138 187 335 356 36 28 19 21 34 26 15 37 37 39 41 37 33 29 30 30 30 28 26 23 20 16 13 10
132 125 133 126 117 114 118 123 131 129 140 157 189 20 25 352 358 16 16 20 2 18 23 29 27 22 20 17 18 22 21 18 16 14 12 7 4 4
155 155 161 143 141 135 133 133 132 118 118 139 156 108 7 18 29 2 6 351 340 358 3 4 5 7 5 4 4 4 4 4 5 4 1 359 359 359
153 169 172 169 171 162 154 156 138 120 114 123 135 122 298 335 80 351 332 331 326 345 350 345 342 343 342 343 345 346 346 346 350 349 349 352 352 350
146 184 191 179 177 175 168 168 152 140 134 138 153 137 204 198 226 220 235 308 305 322 325 329 334 333 326 319 319 324 329 329 327 327 335 342 342 341
166 191 193 183 178 170 167 169 166 162 168 168 181 192 219 213 195 183 172 73 297 298 295 301 330 301 295 292 310 311 310 308 309 314 322 327 329 327
171 168 179 170 170 158 150 149 170 177 176 173 183 204 204 206 182 184 193 195 227 260 159 279 293 289 288 301 312 311 307 304 305 307 311 317 320 319
182 186 183 203 185 163 148 142 178 216 203 193 195 211 207 192 183 191 198 200 265 286 148 257 283 279 304 306 316 319 314 310 311 314 316 316 317 314
211 202 192 206 199 173 158 168 201 260 222 183 188 196 194 179 159 128 126 125 271 272 194 220 273 292 298 300 308 324 325 317 316 317 318 318 314 312
213 224 213 208 201 183 175 178 201 235 210 177 186 303 258 191 172 172 176 170 199 265 227 200 252 303 306 296 313 321 326 323 320 317 316 317 315 310
202 233 230 206 201 194 189 191 207 197 180 175 180 273 327 262 222 207 191 179 185 231 219 176 201 213 245 291 307 305 305 309 316 309 310 313 311 305
207 218 214 197 200 199 197 197 191 177 159 160 179 222 232 241 243 229 219 213 216 227 212 174 188 196 210 263 281 299 300 291 290 295 300 307 304 301
212 201 195 189 189 203 202 189 174 166 167 184 213 231 231 233 225 228 247 235 270 279 242 202 199 201 200 226 255 276 295 291 277 290 294 289 286 292
207 183 172 171 169 179 188 191 183 183 184 202 216 230 214 197 219 214 219 221 274 291 278 238 221 205 225 240 243 264 263 280 297 290 289 285 282 274
153 115 119 135 154 189 198 202 187 183 201 205 206 220 226 226 236 219 202 190 217 261 282 278 248 239 236 229 245 257 264 268 274 285 286 290 282 277
151 166 193 198 203 206 206 216 212 212 214 209 210 215 222 226 237 226 202 205 231 249 260 272 296 323 307 267 230 248 260 265 275 274 263 278 286 285
169 194 205 209 213 209 209 214 221 219 204 202 212 219 220 224 227 227 221 225 239 248 255 250 229 226 270 282 269 225 246 268 277 273 263 261 275 286
193 199 210 211 211 215 217 216 218 209 203 211 217 220 217 218 223 229 228 230 240 250 258 248 233 229 237 258 271 270 248 251 260 271 274 270 271 282
201 204 208 208 212 216 221 218 210 214 213 209 217 221 218 215 226 231 234 240 241 249 257 258 252 254 252 265 277 281 273 258 262 268 275 281 290 289
199 202 206 207 207 209 213 212 210 220 220 218 224 226 224 222 231 236 237 241 246 250 260 270 273 252 230 245 264 275 283 285 280 278 275 265 270 277
200 200 199 201 204 201 202 209 214 225 224 220 226 236 233 230 233 235 241 244 250 258 268 277 278 260 256 256 266 274 280 285 290 290 282 284 282 281